STARLINK-3839 (52480 NORAD) Tracking and Keplerian Element Data

This shows tracking and keplerian element data for the satellite.

Feedback or suggestion? Click here.




ElementValue
Catalog52480
NameSTARLINK-3839
Epoch Orbit130
Epoch Day192.91667824
Epoch Year2022
RAAN300.7673
Inclination53.2173
Eccentricity0.0001522
Argument of Perigee44.3109
Mean Anonmoly26.6032
Mean Motion15.30192707
Decay Rate-0.01067132
L11 52480U 22049AF 22192.91667824 -.01067132 00000+0 -39300-1 0 9992
L22 52480 53.2173 300.7673 0001522 44.3109 26.6032 15.30192707 1307

Live tracking and technical data element details for STARLINK-3839 (NORAD 52480). STARLINK-3839 can be tracked NOW for your location showing map with azimuth and elevation plus other details from your city location.

Track the satellite on the map from your city or location and see movement details for azimuth, elevation, latitude, longitude, range, height, and movement on the map or in text.







IsCatalogInMostPopularTable: catalog: 52480, numindb: 5
Update: records affected: 1



GetName: 52480 STARLINK-3839

Hit Count: updated at: Sun, 14 Aug 2022 00:28:02 GMT